User: anonymous   Login
Location: Bonn
(50.7330°N, 7.1000°E)
Time: 00:19:01
(UTC+02:00)
Language:

Cosmos 1933 Rocket - Orbit

View from above orbital plane
View from above orbital plane
View from above satellite
View from above satellite

Ground track
Ground track

The orbit data is extracted from the following two-line orbital elements,

1 18959U 88020B   16239.90820080 +.00000091 +00000-0 +81460-5 0  9992
2 18959 082.5393 185.7873 0017765 032.3845 327.8457 14.83292190515875
Epoch (UTC): 26 August 2016 21:47:48
Eccentricity: 0.0017765
inclination: 82.5393°
perigee height: 606 km
apogee height: 631 km
right ascension of ascending node: 185.7873°
argument of perigee: 32.3845°
revolutions per day: 14.83292190
mean anomaly at epoch: 327.8457°
orbit number at epoch: 51587

The dashed part of the orbit path shows where the satellite is in the earth's shadow,  

DLR